sat.trackr.live / text

‹ back to catalog

STARLINK-4107

NORAD 53287 · 2022-086AX

PAYLOAD ACTIVE UNKNOWN

§ Identity

Operator
Country
US
Launch date
2022-07-24
Launch site
AFETR
Launch vehicle
Mass (kg)
RCS (m²)

Purposes: comms

External: N2YO · Heavens-Above · Gunter

§ Orbital elements

Epoch: 2026-09-19T22:20:30.183360Z

Period
93.89 min
Inclination
53.1617°
Eccentricity
0.0001242
Mean motion
15.33651842 rev/d
Perigee alt
464.1 km
Apogee alt
465.8 km
Semi-major
6,843.1 km
B*
2.9616e-4
RAAN
16.7232°
Arg perigee
89.8320°
Mean anomaly
270.2824°
Rev number
23,072

§ Raw data

STARLINK-41071 53287U 22086AX  26262.93090490  .00009411  00000+0  29616-3 0  99962 53287  53.1617  16.7232 0001242  89.8320 270.2824 15.33651842230727

JSON: /api/v1/satellites/53287 · /tle

For live sub-satellite position, see the globe view (requires WebGL).

§ Visibility from observer

Set your observer location to see the next 7 days of passes ≥ 10°. The values pass through the URL so the page stays shareable.

No JS? Fill the form by hand. The geolocation button needs JavaScript.